Glasgow, KY

5:26 PM CST on January 16, 2017 (GMT -0600)
Glasgow Municipal

Weather History for KGLW - March, 2014

Change the Weather History Date:

Saturday, March 15, 2014

  Actual Average Record
Temperature  
Mean Temperature 50 °F -  
Max Temperature 66 °F 59 °F 83 °F (2016)
Min Temperature 35 °F 35 °F 9 °F (1993)
Degree Days  
Heating Degree Days 14    
Moisture  
Dew Point 31 °F    
Average Humidity 50    
Maximum Humidity 89    
Minimum Humidity 21    
Precipitation  
Precipitation 0.00 in - - ()
Sea Level Pressure  
Sea Level Pressure 30.04 in    
Wind  
Wind Speed 3 mph (WNW)    
Max Wind Speed 10 mph    
Max Gust Speed -    
Visibility 10 miles    
Events      
Averages and records for this station are not official NWS values.
T = Trace of Precipitation, MM = Missing Value Source: NWS Daily Summary

Daily Weather History Graph

Daily Weather History Graph

Search for Another Location

Airport or City:

Trip Planner

Search our weather history database for the weather conditions in past years. The results will help you decide how hot, cold, wet, or windy it might be!

Date:

Astronomy

Mar. 15, 2014 Rise Set
Actual Time 6:54 AM CDT 6:51 PM CDT
Civil Twilight 6:28 AM CDT 7:17 PM CDT
Nautical Twilight 5:58 AM CDT 7:47 PM CDT
Astronomical Twilight 5:28 AM CDT 8:17 PM CDT
Moon 6:10 PM CDT (3/15) 6:05 AM CDT (3/15)
Length of Visible Light 12h 48m
Length of Day
11h 56m
Waxing Gibbous, 99% of the Moon is Illuminated
Mar 15
Waxing Gibbous
Mar 16
Full
Mar 23
Last Quarter
Mar 30
New
Apr 7
First Quarter

Hourly Weather History & Observations

Time (CDT) Temp. Windchill Dew Point Humidity Pressure Visibility Wind Dir Wind Speed Gust Speed Precip Events Conditions
12:15 AM 49.1 °F - 33.3 °F 54% 30.02 in 10.0 mi SW 8.1 mph - N/A   Clear
12:35 AM 49.8 °F - 33.3 °F 53% 30.01 in 10.0 mi WSW 10.4 mph - N/A   Clear
12:55 AM 50.2 °F - 33.4 °F 53% 30.02 in 10.0 mi WSW 9.2 mph - N/A   Clear
1:15 AM 49.8 °F - 33.6 °F 54% 30.02 in 10.0 mi SW 8.1 mph - N/A   Clear
1:35 AM 49.5 °F - 33.8 °F 55% 30.02 in 10.0 mi SW 6.9 mph - N/A   Clear
1:55 AM 48.4 °F - 33.8 °F 57% 30.03 in 10.0 mi WSW 5.8 mph - N/A   Clear
2:15 AM 47.3 °F - 33.8 °F 59% 30.03 in 10.0 mi WSW 5.8 mph - N/A   Clear
2:35 AM 47.5 °F - 33.8 °F 59% 30.03 in 10.0 mi WSW 4.6 mph - N/A   Clear
2:55 AM 47.1 °F - 33.8 °F 60% 30.03 in 10.0 mi WSW 3.5 mph - N/A   Clear
3:15 AM 46.0 °F - 33.4 °F 61% 30.02 in 10.0 mi Calm Calm - N/A   Clear
3:35 AM 45.7 °F - 33.4 °F 62% 30.03 in 10.0 mi Calm Calm - N/A   Clear
3:55 AM 44.4 °F - 33.3 °F 65% 30.03 in 10.0 mi Calm Calm - N/A   Clear
4:15 AM 42.8 °F - 33.3 °F 69% 30.04 in 10.0 mi Calm Calm - N/A   Clear
4:35 AM 41.2 °F - 32.9 °F 72% 30.04 in 10.0 mi Calm Calm - N/A   Clear
4:55 AM 40.5 °F - 32.9 °F 74% 30.04 in 10.0 mi Calm Calm - N/A   Clear
5:15 AM 39.4 °F - 32.7 °F 77% 30.05 in 10.0 mi Calm Calm - N/A   Clear
5:35 AM 38.8 °F - 32.7 °F 79% 30.06 in 10.0 mi Calm Calm - N/A   Clear
5:55 AM 39.0 °F - 32.7 °F 78% 30.06 in 10.0 mi Calm Calm - N/A   Clear
6:15 AM 37.4 °F - 32.4 °F 82% 30.07 in 10.0 mi Calm Calm - N/A   Clear
6:35 AM 36.5 °F - 32.2 °F 84% 30.07 in 10.0 mi Calm Calm - N/A   Clear
6:55 AM 36.1 °F - 32.4 °F 86% 30.08 in 10.0 mi Calm Calm - N/A   Clear
7:15 AM 35.1 °F - 32.0 °F 89% 30.08 in 10.0 mi Calm Calm - N/A   Clear
7:35 AM 36.0 °F - 32.2 °F 86% 30.09 in 10.0 mi Calm Calm - N/A   Clear
7:55 AM 37.4 °F - 33.3 °F 85% 30.09 in 10.0 mi Calm Calm - N/A   Clear
8:15 AM 40.8 °F - 35.6 °F 82% 30.10 in 10.0 mi Calm Calm - N/A   Clear
8:35 AM 43.3 °F - 36.0 °F 75% 30.11 in 10.0 mi Calm Calm - N/A   Clear
8:55 AM 46.8 °F - 37.0 °F 69% 30.11 in 10.0 mi Calm Calm - N/A   Clear
9:15 AM 49.6 °F - 37.2 °F 62% 30.12 in 10.0 mi Calm Calm - N/A   Clear
9:35 AM 51.3 °F - 36.9 °F 58% 30.12 in 10.0 mi Calm Calm - N/A   Clear
9:55 AM 53.2 °F - 37.0 °F 54% 30.12 in 10.0 mi SE 3.5 mph - N/A   Clear
10:15 AM 54.9 °F - 36.7 °F 50% 30.12 in 10.0 mi South 3.5 mph - N/A   Clear
10:35 AM 55.8 °F - 36.3 °F 48% 30.12 in 10.0 mi SW 5.8 mph - N/A   Clear
10:55 AM 57.2 °F - 33.6 °F 41% 30.12 in 10.0 mi Calm Calm - N/A   Clear
11:15 AM 58.6 °F - 31.3 °F 36% 30.12 in 10.0 mi NNE 4.6 mph - N/A   Clear
11:35 AM 59.7 °F - 30.4 °F 33% 30.12 in 10.0 mi West 4.6 mph - N/A   Clear
11:55 AM 60.4 °F - 30.2 °F 32% 30.11 in 10.0 mi Calm Calm - N/A   Clear
12:15 PM 61.2 °F - 30.7 °F 32% 30.11 in 10.0 mi NNW 4.6 mph - N/A   Clear
12:35 PM 61.5 °F - 30.2 °F 31% 30.11 in 10.0 mi NNW 3.5 mph - N/A   Clear
12:55 PM 61.5 °F - 30.0 °F 30% 30.10 in 10.0 mi ENE 3.5 mph - N/A   Clear
1:15 PM 62.4 °F - 30.0 °F 30% 30.09 in 10.0 mi Calm Calm - N/A   Clear
1:35 PM 62.6 °F - 28.2 °F 27% 30.08 in 10.0 mi NNE 4.6 mph - N/A   Clear
1:55 PM 62.6 °F - 28.6 °F 28% 30.07 in 10.0 mi Calm Calm - N/A   Clear
2:15 PM 63.5 °F - 29.1 °F 27% 30.06 in 10.0 mi East 3.5 mph - N/A   Clear
2:35 PM 64.2 °F - 27.3 °F 25% 30.06 in 10.0 mi Calm Calm - N/A   Clear
2:55 PM 64.8 °F - 27.0 °F 24% 30.05 in 10.0 mi Calm Calm - N/A   Clear
3:15 PM 65.1 °F - 25.2 °F 22% 30.04 in 10.0 mi North 3.5 mph - N/A   Clear
3:35 PM 65.7 °F - 26.4 °F 23% 30.03 in 10.0 mi Calm Calm - N/A   Clear
3:55 PM 66.0 °F - 25.2 °F 21% 30.03 in 10.0 mi East 5.8 mph - N/A   Clear
4:15 PM 66.0 °F - 24.3 °F 21% 30.02 in 10.0 mi East 4.6 mph - N/A   Clear
4:35 PM 65.8 °F - 25.3 °F 22% 30.01 in 10.0 mi NE 3.5 mph - N/A   Clear
4:55 PM 66.0 °F - 26.2 °F 22% 30.01 in 10.0 mi Calm Calm - N/A   Clear
5:15 PM 66.0 °F - 26.1 °F 22% 30.01 in 10.0 mi Calm Calm - N/A   Clear
5:35 PM 65.5 °F - 26.6 °F 23% 30.00 in 10.0 mi Calm Calm - N/A   Clear
5:55 PM 64.9 °F - 25.9 °F 23% 30.00 in 10.0 mi Calm Calm - N/A   Clear
6:15 PM 63.9 °F - 27.3 °F 25% 30.00 in 10.0 mi Calm Calm - N/A   Clear
6:35 PM 62.8 °F - 26.4 °F 25% 30.00 in 10.0 mi Calm Calm - N/A   Clear
6:55 PM 60.4 °F - 25.9 °F 27% 30.00 in 10.0 mi Calm Calm - N/A   Clear
7:15 PM 55.8 °F - 28.6 °F 35% 30.00 in 10.0 mi North 3.5 mph - N/A   Clear
7:35 PM 51.8 °F - 30.0 °F 43% 30.00 in 10.0 mi Calm Calm - N/A   Clear
7:55 PM 52.5 °F - 28.0 °F 39% 29.99 in 10.0 mi Calm Calm - N/A   Clear
8:15 PM 50.9 °F - 28.4 °F 42% 29.99 in 10.0 mi Calm Calm - N/A   Clear
8:35 PM 49.6 °F - 28.6 °F 44% 30.00 in 10.0 mi Calm Calm - N/A   Clear
8:55 PM 47.8 °F - 30.4 °F 51% 30.00 in 10.0 mi Calm Calm - N/A   Clear
9:15 PM 47.7 °F - 30.4 °F 51% 30.00 in 10.0 mi Calm Calm - N/A   Clear
9:35 PM 46.8 °F - 31.5 °F 55% 30.00 in 10.0 mi Calm Calm - N/A   Clear
9:55 PM 45.7 °F - 32.2 °F 59% 30.01 in 10.0 mi Calm Calm - N/A   Clear
10:15 PM 45.9 °F - 32.5 °F 60% 30.00 in 10.0 mi Calm Calm - N/A   Clear
10:35 PM 46.4 °F 45.2 °F 32.9 °F 59% 29.99 in 10.0 mi East 3.5 mph - N/A   Clear
10:55 PM 46.4 °F 45.2 °F 32.7 °F 59% 29.98 in 10.0 mi East 3.5 mph - N/A   Clear
11:15 PM 46.9 °F - 32.2 °F 57% 29.98 in 10.0 mi Calm Calm - N/A   Clear
11:35 PM 46.2 °F 45.0 °F 31.8 °F 57% 29.98 in 10.0 mi ENE 3.5 mph - N/A   Clear
11:55 PM 46.0 °F - 31.6 °F 57% 29.97 in 10.0 mi Calm Calm - N/A   Clear